Date String (YYYY-MM-DD hh:mm:ss) UTC,Instrument flags,Ambient pressure (hPa),Sample flow (lpm),Bypass flow (lpm),Sample temperature (°C),Ambient temperature (°C),ASC tube jacket temperature (°C),LED temperature (°C),Box temperature (°C),Sample RH (%),Span deviation,Mass concentration (μg/m³),Mass concentration (μg/m³),Mass concentration (μg/m³)
DateTimeUTC,F1_M11,P_M11,Q1_M11,Q2_M11,T1_M11,T2_M11,T3_M11,T4_M11,T5_M11,U1_M11,ZSPAN_M11,X0_M11,X2_M11,X1_M11
2022-01-31 14:00:00,,0818.5,5.01,0.00,22.5,21.9,00.0,31.5,24.2,02.8,0000.0,0005.64,0003.80,0003.63
2022-01-31 14:01:00,,0818.4,4.99,0.00,22.5,21.9,00.0,31.5,24.2,03.0,0000.0,0005.08,0003.55,0003.41
2022-01-31 14:02:00,,0818.4,5.01,0.00,22.4,21.8,00.0,31.5,24.1,03.0,0000.0,0004.68,0003.38,0003.25
2022-01-31 14:03:00,,0818.4,5.00,0.00,22.4,21.7,00.0,31.4,24.1,03.2,0000.0,0005.11,0003.19,0003.02
2022-01-31 14:04:00,,0818.4,5.01,0.00,22.4,21.6,00.0,31.4,24.0,03.6,0000.0,0005.50,0002.87,0002.63
2022-01-31 14:05:00,,0818.4,4.99,0.00,22.3,21.5,00.0,31.4,24.0,03.5,0000.0,0004.91,0002.44,0002.25
2022-01-31 14:06:00,,0818.5,5.00,0.00,22.3,21.5,00.0,31.4,23.9,03.5,0000.0,0004.51,0002.10,0001.90
2022-01-31 14:07:00,,0818.5,5.01,0.00,22.3,21.4,00.0,31.4,23.9,03.3,0000.0,0004.04,0001.71,0001.52
2022-01-31 14:08:00,,0818.6,4.99,0.00,22.3,21.4,00.0,31.4,23.9,03.3,0000.0,0003.51,0001.41,0001.24
2022-01-31 14:09:00,,0818.6,5.01,0.00,22.2,21.4,00.0,31.3,23.8,03.0,0000.0,0003.14,0001.18,0001.02
2022-01-31 14:10:00,,0818.5,4.99,0.00,22.2,21.4,00.0,31.3,23.8,03.3,0000.0,0003.46,0001.06,0000.88
2022-01-31 14:11:00,,0818.5,5.00,0.00,22.2,21.4,00.0,31.3,23.8,03.2,0000.0,0003.86,0001.00,0000.82
2022-01-31 14:12:00,,0818.5,5.00,0.00,22.2,21.4,00.0,31.3,23.8,03.5,0000.0,0004.05,0000.95,0000.76
2022-01-31 14:13:00,,0818.6,4.99,0.00,22.3,22.1,00.0,31.3,24.1,03.5,0000.0,0004.43,0000.89,0000.71
2022-01-31 14:14:00,,0818.8,5.01,0.00,22.4,23.0,00.0,31.4,24.4,03.8,0000.0,0003.73,0000.81,0000.66
2022-01-31 14:15:00,,0818.8,5.00,0.00,22.6,23.3,00.0,31.4,24.6,03.7,0000.0,0002.59,0000.79,0000.68
2022-01-31 14:16:00,,0818.7,4.99,0.00,22.6,23.0,00.0,31.4,24.5,03.3,0000.0,0002.52,0000.78,0000.67
2022-01-31 14:17:00,,0818.6,4.99,0.00,22.6,22.7,00.0,31.4,24.4,03.1,0000.0,0002.53,0000.82,0000.73
2022-01-31 14:18:00,,0818.5,5.00,0.00,22.5,22.5,00.0,31.5,24.3,03.1,0000.0,0002.55,0000.85,0000.77
2022-01-31 14:19:00,,0818.5,4.99,0.00,22.5,22.3,00.0,31.5,24.3,03.2,0000.0,0002.60,0000.90,0000.81
2022-01-31 14:20:00,,0818.4,5.01,0.00,22.5,22.2,00.0,31.5,24.3,02.8,0000.0,0002.64,0000.92,0000.81
2022-01-31 14:21:00,,0818.4,4.99,0.00,22.5,22.0,00.0,31.4,24.2,02.7,0000.0,0002.31,0000.89,0000.79
2022-01-31 14:22:00,,0818.4,5.01,0.00,22.4,21.9,00.0,31.4,24.2,02.6,0000.0,0001.81,0000.88,0000.77
2022-01-31 14:23:00,,0818.4,4.99,0.00,22.4,21.8,00.0,31.4,24.1,02.9,0000.0,0001.65,0000.87,0000.76
2022-01-31 14:24:00,,0818.4,5.00,0.00,22.4,21.7,00.0,31.4,24.0,03.1,0000.0,0001.10,0000.85,0000.74
2022-01-31 14:25:00,,0818.4,5.00,0.00,22.3,21.6,00.0,31.4,23.9,03.2,0000.0,0001.08,0000.83,0000.73
2022-01-31 14:26:00,,0818.4,5.01,0.00,22.3,21.6,00.0,31.4,23.9,03.0,0000.0,0000.97,0000.73,0000.63
2022-01-31 14:27:00,,0818.4,4.98,0.00,22.3,21.6,00.0,31.4,23.9,02.6,0000.0,0000.84,0000.61,0000.53
2022-01-31 14:28:00,,0818.4,5.01,0.00,22.2,21.5,00.0,31.3,23.8,02.7,0000.0,0000.69,0000.47,0000.39
2022-01-31 14:29:00,,0818.4,4.99,0.00,22.2,21.5,00.0,31.3,23.8,02.6,0000.0,0000.67,0000.36,0000.29
2022-01-31 14:30:00,,0818.4,5.00,0.00,22.2,21.5,00.0,31.3,23.8,02.4,0000.0,0001.23,0000.29,0000.22
2022-01-31 14:31:00,,0818.5,5.01,0.00,22.2,21.4,00.0,31.3,23.7,02.4,0000.0,0001.17,0000.25,0000.19
2022-01-31 14:32:00,,0818.5,4.99,0.00,22.2,21.4,00.0,31.3,23.7,02.9,0000.0,0001.10,0000.23,0000.19
2022-01-31 14:33:00,,0818.4,5.01,0.00,22.2,21.4,00.0,31.3,23.8,03.0,0000.0,0001.03,0000.23,0000.19
2022-01-31 14:34:00,,0818.5,4.99,0.00,22.2,21.4,00.0,31.3,23.8,02.4,0000.0,0001.00,0000.21,0000.18
2022-01-31 14:35:00,,0818.4,4.99,0.00,22.2,22.0,00.0,31.3,24.0,02.4,0000.0,0001.00,0000.21,0000.19
2022-01-31 14:36:00,,0818.5,5.00,0.00,22.4,22.9,00.0,31.3,24.3,02.5,0000.0,0001.01,0000.22,0000.19
2022-01-31 14:37:00,,0818.5,5.00,0.00,22.5,23.1,00.0,31.4,24.4,02.4,0000.0,0001.01,0000.22,0000.19
2022-01-31 14:38:00,,0818.5,5.00,0.00,22.5,23.0,00.0,31.4,24.4,02.5,0000.0,0001.01,0000.22,0000.19
2022-01-31 14:39:00,,0818.5,5.01,0.00,22.5,22.7,00.0,31.4,24.4,02.8,0000.0,0001.89,0000.22,0000.19
2022-01-31 14:40:00,,0818.4,4.99,0.00,22.5,22.6,00.0,31.4,24.3,03.1,0000.0,0002.01,0000.22,0000.20
2022-01-31 14:41:00,,0818.4,5.01,0.00,22.5,22.4,00.0,31.4,24.3,02.8,0000.0,0001.30,0000.22,0000.20
2022-01-31 14:42:00,,0818.3,4.99,0.00,22.5,22.3,00.0,31.4,24.2,02.7,0000.0,0001.29,0000.22,0000.20
2022-01-31 14:43:00,,0818.3,5.00,0.00,22.5,22.2,00.0,31.4,24.2,02.8,0000.0,0001.30,0000.22,0000.20
2022-01-31 14:44:00,,0818.3,5.00,0.00,22.5,22.1,00.0,31.4,24.1,02.7,0000.0,0001.30,0000.22,0000.20
2022-01-31 14:45:00,,0818.2,5.02,0.00,22.5,22.0,00.0,31.4,24.1,03.3,0000.0,0001.31,0000.23,0000.20
2022-01-31 14:46:00,,0818.2,4.99,0.00,22.4,21.9,00.0,31.4,24.1,03.0,0000.0,0001.31,0000.23,0000.20
2022-01-31 14:47:00,,0818.1,5.01,0.00,22.4,21.8,00.0,31.4,24.1,03.1,0000.0,0001.59,0000.25,0000.20
2022-01-31 14:48:00,,0818.0,5.00,0.00,22.4,21.7,00.0,31.4,24.0,03.6,0000.0,0001.68,0000.26,0000.20
2022-01-31 14:49:00,,0817.9,5.01,0.00,22.4,21.6,00.0,31.4,24.1,03.3,0000.0,0002.63,0000.27,0000.20
2022-01-31 14:50:00,,0817.9,5.00,0.00,22.3,21.5,00.0,31.4,24.0,03.1,0000.0,0004.19,0000.34,0000.21
2022-01-31 14:51:00,,0817.9,5.00,0.00,22.3,21.5,00.0,31.4,24.0,02.9,0000.0,0007.03,0000.41,0000.22
2022-01-31 14:52:00,,0817.8,5.01,0.00,22.3,21.4,00.0,31.4,24.0,03.1,0000.0,0008.55,0000.44,0000.22
2022-01-31 14:53:00,,0817.9,4.99,0.00,22.3,21.4,00.0,31.4,24.0,03.0,0000.0,0010.99,0000.45,0000.23
2022-01-31 14:54:00,,0817.9,5.01,0.00,22.3,21.3,00.0,31.4,23.9,03.1,0000.0,0014.42,0000.48,0000.24
2022-01-31 14:55:00,,0817.9,4.99,0.00,22.3,21.4,00.0,31.4,23.9,03.4,0000.0,0015.80,0000.49,0000.24
2022-01-31 14:56:00,,0817.8,5.01,0.00,22.3,22.0,00.0,31.4,24.1,03.6,0000.0,0015.87,0000.49,0000.24
2022-01-31 14:57:00,,0817.8,4.99,0.00,22.5,23.0,00.0,31.4,24.5,03.1,0000.0,0015.92,0000.49,0000.24
2022-01-31 14:58:00,,0817.8,5.00,0.00,22.6,23.6,00.0,31.5,24.7,03.3,0000.0,0015.79,0000.48,0000.25
2022-01-31 14:59:00,,0817.8,5.00,0.00,22.7,23.3,00.0,31.5,24.7,03.4,0000.0,0015.76,0000.49,0000.25
